Location: Bruch
(44.2051°N, 0.4120°E)
Time: 13:00:34
(UTC+00:00)

Lacrosse 5 - Pass Details

Date: 29 November 2020
Orbit: 713 x 726 km, 57.0° (Epoch: 22 January)

Event Time Altitude Azimuth Distance (km) Brightness Sun altitude
Exits shadow 06:11:21 14° 278° (W) 1,956 3.5 -10.6°
Maximum altitude 06:15:04 30° 335° (NNW) 1,258 2.8 -10.0°
Drops below altitude 10° 06:19:31 10° 37° (NE) 2,198 4.6 -9.3°
Sets 06:22:10 0° 48° (NE) 3,121 5.5 -8.8°
